This demonstration page uses our WeatherBlox Daily Observations layout. Learn more.

Left ArrowRight Arrow

38.88101, -77.10428

Hourly Observations for August 23, 2020

Temp ( °F °C ) Dew Point ( °F °C ) Humidity (%) Winds ( mph kmh ) Pressure ( in mb ) Visibility ( mi km ) Precip ( " mm )
12:52 am 00:52 Cloudy 77 25 73 22.8 88 88 S 5 7 30.02 1017 10 16.0934 0 0
1:52 am 01:52 Cloudy 76 24.4 73 22.8 91 91 Calm 30.01 1016 10 16.0934 0 0
2:02 am 02:02 Cloudy 77 25 73 22.8 88 88 Calm 30.01 1016 10 16.0934 0 0
2:52 am 02:52 Cloudy 76 24.4 73 22.8 91 91 SSE 5 7 30.01 1016 10 16.0934 0 0
3:39 am 03:39 Mostly Cloudy 76 24.4 73 22.8 91 91 S 5 7 30.02 1017 10 16.0934 0 0
3:52 am 03:52 Cloudy 76 24.4 73 22.8 91 91 S 5 7 30.01 1016 10 16.0934 0 0
4:52 am 04:52 Cloudy 76 24.4 74 23.3 94 94 S 5 7 30.03 1017 10 16.0934 0 0
5:52 am 05:52 Cloudy 76 24.4 74 23.3 94 94 SSW 6 9 30.04 1017 10 16.0934 0 0
6:19 am 06:19 Cloudy 76 24.4 73 22.8 91 91 S 5 7 30.04 1017 10 16.0934 0 0
6:32 am 06:32 Mostly Cloudy 76 24.4 73 22.8 91 91 S 6 9 30.04 1017 10 16.0934 0 0
6:52 am 06:52 Mostly Cloudy 76 24.4 73 22.8 91 91 S 5 7 30.04 1017 10 16.0934 0 0
7:52 am 07:52 Mostly Cloudy 77 25 73 22.8 88 88 SW 5 7 30.05 1018 10 16.0934 0 0
8:52 am 08:52 Mostly Cloudy 78 25.6 74 23.3 87 87 SW 6 9 30.06 1018 10 16.0934 0 0
8:59 am 08:59 Cloudy 78 25.6 73 22.8 85 85 SW 5 7 30.06 1018 10 16.0934 0 0
9:52 am 09:52 Mostly Cloudy 80 26.7 75 23.9 85 85 SSE 6 9 30.07 1018 10 16.0934 0 0
9:59 am 09:59 Partly Cloudy 80 26.7 74 23.3 82 82 SE 6 9 30.07 1018 10 16.0934 0 0
10:43 am 10:43 Mostly Cloudy 82 27.8 74 23.3 77 77 SSE 6 9 30.07 1018 10 16.0934 0 0
10:52 am 10:52 Mostly Cloudy 82 27.8 74 23.3 77 77 SSE 6 9 30.07 1018 10 16.0934 0 0
11:52 am 11:52 Mostly Cloudy 83 28.3 73 22.8 72 72 S 8 13 30.06 1018 10 16.0934 0 0
12:52 pm 12:52 Mostly Cloudy 85 29.4 73 22.8 68 68 SSE 7 11 30.05 1018 10 16.0934 0 0
1:35 pm 13:35 Mostly Cloudy 86 30 73 22.8 65 65 S 8 13 30.04 1017 10 16.0934 0 0
1:52 pm 13:52 Mostly Cloudy 86 30 73 22.8 65 65 SSE 9 15 30.04 1017 10 16.0934 0 0
2:52 pm 14:52 Mostly Cloudy 87 30.6 73 22.8 63 63 S 12 19 30.02 1017 10 16.0934 0 0
3:52 pm 15:52 Mostly Cloudy 88 31.1 74 23.3 63 63 S 14 22 30.01 1016 10 16.0934 0 0
4:52 pm 16:52 Partly Cloudy 88 31.1 73 22.8 61 61 S 12 19 30 1016 10 16.0934 0 0
5:52 pm 17:52 Mostly Cloudy 88 31.1 72 22.2 59 59 SSW 9 15 30 1016 10 16.0934 0 0
6:52 pm 18:52 Mostly Cloudy 87 30.6 69 20.6 55 55 SW 10 17 30.01 1016 10 16.0934 0 0
7:52 pm 19:52 Mostly Cloudy 85 29.4 71 21.7 63 63 SW 7 11 30.02 1017 10 16.0934 0 0
8:52 pm 20:52 Mostly Cloudy 85 29.4 71 21.7 63 63 SSW 5 7 30.03 1017 10 16.0934 0 0
9:52 pm 21:52 Mostly Cloudy 82 27.8 72 22.2 72 72 SSW 7 11 30.04 1017 10 16.0934 0 0
10:52 pm 22:52 Mostly Cloudy 81 27.2 75 23.9 82 82 S 7 11 30.04 1017 10 16.0934 0 0
11:52 pm 23:52 Mostly Cloudy 81 27.2 73 22.8 77 77 SSW 9 15 30.05 1018 10 16.0934 0 0

Powered by AerisWeather